Tracking 18980 objects as of 20-Feb-2018
HD Live streaming from Space Station
objects crossing your sky now

BREEZE-KM R/B

Track BREEZE-KM R/B now!
10-day predictions


NORAD ID: 40064
Int'l Code: 2014-036D
Perigee: 1,163.4 km
Apogee: 1,520.1 km
Inclination: 82.5 °
Period: 112.4 minutes
Semi major axis: 7712 km
RCS: Unknown
Launch date: July 3, 2014
Source: Commonwealth of Independent States (former USSR) (CIS)
Launch site: PLESETSK MISSILE AND SPACE COMPLEX (PKMTR)

Note: This is a ROCKET BODY
aabbcc
Your satellite tracking list
Your tracking list is empty




NASA's NSSDC Master Catalog

Two Line Element Set (TLE):
1 40064U 14036D   18050.86318929 +.00000039 +00000-0 +10370-3 0  9994
2 40064 082.5158 333.5746 0231179 039.7884 321.9917 12.81707867170016
Source of the keplerian elements: AFSPC